TAPIOLA Weather Reports


Display with metric or nautical units.
time (UTC)temp
F
wind
direction
speed
MPH
gust
MPH
rain 1hr
in
rain 24hr
in
rain mn
in
humidity
%
barometer
mb
20260508104729 58 341 10.0 18.0 0.00 0.00 0.00 24 1026.3
20260508102729 58 40 9.0 15.0 0.00 0.00 0.00 30 1026.2
20260508100729 57 26 11.0 20.0 0.00 0.00 0.00 27 1026.2
20260508094729 56 6 9.0 17.0 0.00 0.00 0.00 25 1026.1
20260508092729 56 360 7.0 15.0 0.00 0.00 0.00 32 1026.0
20260508090729 55 360 7.0 18.0 0.00 0.00 0.00 29 1026.2
20260508084729 54 356 13.0 18.0 0.00 0.00 0.00 31 1026.2
20260508082729 54 1 11.0 19.0 0.00 0.00 0.00 31 1026.1
20260508080730 53 25 11.0 20.0 0.00 0.00 0.00 31 1026.1
20260508072729 52 6 11.0 19.0 0.00 0.00 0.00 36 1025.9
20260508070730 50 353 13.0 19.0 0.00 0.00 0.00 37 1025.8
20260508064729 49 356 11.0 20.0 0.00 0.00 0.00 39 1025.7
20260508062728 48 351 13.0 19.0 0.00 0.00 0.00 42 1025.5
20260508060729 47 349 14.0 20.0 0.00 0.00 0.00 45 1025.3
20260508054729 47 353 10.0 18.0 0.00 0.00 0.00 46 1025.1
20260508052729 46 355 9.0 16.0 0.00 0.00 0.00 52 1024.9
20260508050728 44 351 12.0 18.0 0.00 0.00 0.00 53 1024.7
20260508044729 43 355 10.0 16.0 0.00 0.00 0.00 55 1024.5
20260508040728 41 350 9.0 13.0 0.00 0.00 0.00 58 1024.1
20260508034728 40 343 7.0 10.0 0.00 0.00 0.00 59 1023.9
20260508032728 39 341 7.0 11.0 0.00 0.00 0.00 60 1023.7
20260508030728 38 348 7.0 11.0 0.00 0.00 0.00 61 1023.5
20260508024727 38 347 7.0 10.0 0.00 0.00 0.00 61 1023.2
20260508022727 38 347 7.0 11.0 0.00 0.00 0.00 60 1022.9
20260508020728 39 346 8.0 11.0 0.00 0.00 0.00 59 1022.6
20260508014728 40 343 9.0 12.0 0.00 0.00 0.00 57 1022.4
20260508012727 40 348 11.0 15.0 0.00 0.00 0.00 55 1022.1
20260508010728 41 348 11.0 16.0 0.00 0.00 0.00 53 1021.9
20260508004727 41 348 10.0 15.0 0.00 0.00 0.00 53 1021.7
20260508002727 42 344 12.0 16.0 0.00 0.00 0.00 51 1021.4
20260508000728 42 345 10.0 16.0 0.00 0.00 0.00 51 1021.2
20260507234728 43 341 9.0 13.0 0.00 0.00 0.00 50 1021.0
20260507232727 43 338 9.0 13.0 0.00 0.00 0.00 50 1020.7
20260507230727 43 338 8.0 13.0 0.00 0.00 0.00 49 1020.4
20260507224726 44 338 10.0 14.0 0.00 0.00 0.00 47 1020.1
20260507222727 44 340 9.0 14.0 0.00 0.00 0.00 46 1020.0
20260507220727 44 337 9.0 13.0 0.00 0.00 0.00 46 1019.8
20260507214727 42 327 8.0 12.0 0.00 0.00 0.00 51 1019.5
20260507212727 41 325 7.0 11.0 0.00 0.00 0.00 49 1019.3
20260507210726 41 333 6.0 9.0 0.00 0.00 0.00 49 1019.0
20260507204727 43 336 9.0 12.0 0.00 0.00 0.00 45 1018.7
20260507202727 40 337 9.0 12.0 0.00 0.00 0.00 50 1018.5
20260507200727 40 308 5.0 7.0 0.00 0.00 0.00 49 1018.1
20260507194727 41 291 3.0 5.0 0.00 0.00 0.00 49 1017.9
20260507192726 43 255 4.0 6.0 0.00 0.00 0.00 44 1017.6
20260507190726 44 263 4.0 6.0 0.00 0.00 0.00 45 1017.4
20260507184727 46 237 5.0 9.0 0.00 0.00 0.00 39 1017.2
20260507182726 48 214 6.0 9.0 0.00 0.00 0.00 36 1017.0
20260507180725 49 217 6.0 11.0 0.00 0.00 0.00 33 1016.9
20260507174726 50 215 6.0 12.0 0.00 0.00 0.00 33 1016.9
20260507172725 50 205 8.0 11.0 0.00 0.00 0.00 33 1016.7
20260507170725 50 203 8.0 13.0 0.00 0.00 0.00 30 1016.7
20260507162726 50 202 9.0 15.0 0.00 0.00 0.00 31 1016.5
20260507160726 50 192 8.0 15.0 0.00 0.00 0.00 37 1016.4
20260507154726 50 178 8.0 12.0 0.00 0.00 0.00 34 1016.3
20260507152725 51 177 6.0 13.0 0.00 0.00 0.00 35 1016.2
20260507150727 51 177 7.0 13.0 0.00 0.00 0.00 35 1016.2
20260507142726 54 166 8.0 14.0 0.00 0.00 0.00 26 1016.1
20260507140725 54 170 9.0 14.0 0.00 0.00 0.00 24 1016.0
20260507134726 54 157 8.0 14.0 0.00 0.00 0.00 23 1015.9
20260507132725 55 182 7.0 11.0 0.00 0.00 0.00 23 1015.8
20260507130726 55 144 8.0 13.0 0.00 0.00 0.00 24 1015.8
20260507124725 54 154 9.0 13.0 0.00 0.00 0.00 25 1015.8
20260507122725 55 168 8.0 12.0 0.00 0.00 0.00 25 1015.9
20260507120725 54 166 10.0 13.0 0.00 0.00 0.00 25 1015.8
20260507114725 54 172 9.0 13.0 0.00 0.00 0.00 27 1015.9
20260507112724 53 162 11.0 14.0 0.00 0.00 0.00 28 1015.8
20260507110724 54 167 11.0 14.0 0.00 0.00 0.00 28 1015.9